Powrót do katalogu

ARIANE 1 DEB

LostHEO
NORAD 28147·DEBRIS·🇫🇷 France

Wystrzelony Dec 24, 1979 z Guiana Space Centre

Loading…

Następne Przeloty (najbliższe 24 godziny)

TLE

NieaktualneSource: Space-Track

Epoka: Jul 21, 2021, 07:14 UTC

1 28147U 79104U   21202.30148878 -.00000037  00000-0  00000-0 0  9990
2 28147  14.4159 163.1041 5668997 195.0729 351.0770  3.63579961110023

Śledź ARIANE 1 DEB w czasie rzeczywistym z AllMySat

Download on the App Store